Time,TemperatureF,DewpointF,PressureIn,WindDirection,WindDirectionDegrees,WindSpeedMPH,WindSpeedGustMPH,Humidity,HourlyPrecipIn,Conditions,Clouds,dailyrainin,SoftwareType,DateUTC
2013-03-15 00:00:00,37.5,26.0,30.15,South,185,0.0,5.0,63,0.00,,,0.00,Wunderground v.1.15,2013-03-15 04:00:00,
2013-03-15 00:10:00,37.1,25.7,30.15,South,185,0.0,5.0,63,0.00,,,0.00,Wunderground v.1.15,2013-03-15 04:10:00,
2013-03-15 00:20:00,36.8,25.4,30.15,South,185,0.0,5.0,63,0.00,,,0.00,Wunderground v.1.15,2013-03-15 04:20:00,
2013-03-15 00:30:00,36.7,25.7,30.15,South,185,0.0,5.0,64,0.00,,,0.00,Wunderground v.1.15,2013-03-15 04:30:00,
2013-03-15 00:35:00,36.6,25.9,30.15,South,185,0.0,5.0,65,0.00,,,0.00,Wunderground v.1.15,2013-03-15 04:35:00,
2013-03-15 00:45:00,36.6,25.9,30.15,South,185,0.0,5.0,65,0.00,,,0.00,Wunderground v.1.15,2013-03-15 04:45:00,
2013-03-15 00:50:00,36.5,25.8,30.16,South,185,0.0,5.0,65,0.00,,,0.00,Wunderground v.1.15,2013-03-15 04:50:00,
2013-03-15 01:00:00,36.5,25.8,30.16,South,185,0.0,5.0,65,0.00,,,0.00,Wunderground v.1.15,2013-03-15 05:00:00,
2013-03-15 01:10:00,36.5,25.5,30.16,South,185,0.0,5.0,64,0.00,,,0.00,Wunderground v.1.15,2013-03-15 05:10:00,
2013-03-15 01:20:00,36.5,25.1,30.16,South,185,0.0,5.0,63,0.00,,,0.00,Wunderground v.1.15,2013-03-15 05:20:00,
2013-03-15 01:30:00,36.6,24.4,30.16,South,185,0.0,5.0,61,0.00,,,0.00,Wunderground v.1.15,2013-03-15 05:30:00,
2013-03-15 01:40:00,36.7,24.1,30.16,South,185,0.0,5.0,60,0.00,,,0.00,Wunderground v.1.15,2013-03-15 05:40:00,
2013-03-15 01:45:00,36.8,24.6,30.16,South,185,0.0,5.0,61,0.00,,,0.00,Wunderground v.1.15,2013-03-15 05:45:00,
2013-03-15 01:55:00,36.8,24.2,30.16,South,185,0.0,5.0,60,0.00,,,0.00,Wunderground v.1.15,2013-03-15 05:55:00,
2013-03-15 02:05:00,36.8,25.0,30.16,South,185,0.0,5.0,62,0.00,,,0.00,Wunderground v.1.15,2013-03-15 06:05:00,
2013-03-15 02:15:00,36.6,25.2,30.16,South,185,0.0,5.0,63,0.00,,,0.00,Wunderground v.1.15,2013-03-15 06:15:00,
2013-03-15 02:25:00,36.4,24.6,30.16,South,184,0.0,5.0,62,0.00,,,0.00,Wunderground v.1.15,2013-03-15 06:25:00,
2013-03-15 02:35:00,36.2,24.0,30.16,South,185,0.0,5.0,61,0.00,,,0.00,Wunderground v.1.15,2013-03-15 06:35:00,
2013-03-15 02:45:00,36.0,23.8,30.16,South,185,0.0,5.0,61,0.00,,,0.00,Wunderground v.1.15,2013-03-15 06:45:00,
2013-03-15 02:55:00,35.8,24.4,30.16,South,184,0.0,5.0,63,0.00,,,0.00,Wunderground v.1.15,2013-03-15 06:55:00,
2013-03-15 03:05:00,35.5,24.1,30.16,South,185,0.0,5.0,63,0.00,,,0.00,Wunderground v.1.15,2013-03-15 07:05:00,
2013-03-15 03:15:00,35.3,24.0,30.16,South,185,0.0,5.0,63,0.00,,,0.00,Wunderground v.1.15,2013-03-15 07:15:00,
2013-03-15 03:25:00,35.1,24.1,30.15,South,185,0.0,5.0,64,0.00,,,0.00,Wunderground v.1.15,2013-03-15 07:25:00,
2013-03-15 03:35:00,34.9,23.9,30.15,South,185,0.0,5.0,64,0.00,,,0.00,Wunderground v.1.15,2013-03-15 07:35:00,
2013-03-15 03:40:00,34.8,24.2,30.15,South,185,0.0,5.0,65,0.00,,,0.00,Wunderground v.1.15,2013-03-15 07:40:00,
2013-03-15 03:45:00,34.7,24.5,30.14,South,184,0.0,5.0,66,0.00,,,0.00,Wunderground v.1.15,2013-03-15 07:45:00,
2013-03-15 03:50:00,34.6,24.4,30.14,South,184,0.0,5.0,66,0.00,,,0.00,Wunderground v.1.15,2013-03-15 07:50:00,
2013-03-15 03:55:00,34.4,24.2,30.14,South,185,0.0,5.0,66,0.00,,,0.00,Wunderground v.1.15,2013-03-15 07:55:00,
2013-03-15 04:00:00,34.4,24.9,30.14,South,185,0.0,5.0,68,0.00,,,0.00,Wunderground v.1.15,2013-03-15 08:00:00,
2013-03-15 04:05:00,34.4,24.9,30.14,South,184,0.0,5.0,68,0.00,,,0.00,Wunderground v.1.15,2013-03-15 08:05:00,
2013-03-15 04:15:00,34.0,24.9,30.14,South,185,0.0,5.0,69,0.00,,,0.00,Wunderground v.1.15,2013-03-15 08:15:00,
2013-03-15 04:20:00,33.8,24.7,30.14,South,185,0.0,5.0,69,0.00,,,0.00,Wunderground v.1.15,2013-03-15 08:20:00,
2013-03-15 04:25:00,33.6,24.9,30.14,South,184,0.0,5.0,70,0.00,,,0.00,Wunderground v.1.15,2013-03-15 08:25:00,
2013-03-15 04:30:00,33.5,24.8,30.13,South,184,0.0,5.0,70,0.00,,,0.00,Wunderground v.1.15,2013-03-15 08:30:00,
2013-03-15 04:35:00,33.3,24.6,30.14,South,185,0.0,5.0,70,0.00,,,0.00,Wunderground v.1.15,2013-03-15 08:35:00,
2013-03-15 04:45:00,33.0,24.3,30.14,South,185,0.0,5.0,70,0.00,,,0.00,Wunderground v.1.15,2013-03-15 08:45:00,
2013-03-15 04:50:00,33.0,24.3,30.14,South,185,0.0,5.0,70,0.00,,,0.00,Wunderground v.1.15,2013-03-15 08:50:00,
2013-03-15 04:55:00,32.9,24.2,30.14,South,185,0.0,5.0,70,0.00,,,0.00,Wunderground v.1.15,2013-03-15 08:55:00,
2013-03-15 05:00:00,32.8,24.1,30.14,South,185,0.0,5.0,70,0.00,,,0.00,Wunderground v.1.15,2013-03-15 09:00:00,
2013-03-15 05:05:00,32.8,24.1,30.14,South,184,0.0,5.0,70,0.00,,,0.00,Wunderground v.1.15,2013-03-15 09:05:00,
2013-03-15 05:15:00,32.7,24.0,30.14,South,185,0.0,5.0,70,0.00,,,0.00,Wunderground v.1.15,2013-03-15 09:15:00,
2013-03-15 05:20:00,32.6,23.9,30.14,South,184,0.0,5.0,70,0.00,,,0.00,Wunderground v.1.15,2013-03-15 09:20:00,
2013-03-15 05:25:00,32.6,23.9,30.15,South,185,0.0,5.0,70,0.00,,,0.00,Wunderground v.1.15,2013-03-15 09:25:00,
2013-03-15 05:30:00,32.5,23.8,30.15,South,185,0.0,5.0,70,0.00,,,0.00,Wunderground v.1.15,2013-03-15 09:30:00,
2013-03-15 05:40:00,32.5,23.8,30.15,South,185,0.0,5.0,70,0.00,,,0.00,Wunderground v.1.15,2013-03-15 09:40:00,
2013-03-15 05:45:00,32.5,23.8,30.15,South,184,0.0,5.0,70,0.00,,,0.00,Wunderground v.1.15,2013-03-15 09:45:00,
2013-03-15 05:50:00,32.5,24.1,30.16,South,184,0.0,5.0,71,0.00,,,0.00,Wunderground v.1.15,2013-03-15 09:50:00,
2013-03-15 05:55:00,32.4,24.0,30.16,South,184,0.0,5.0,71,0.00,,,0.00,Wunderground v.1.15,2013-03-15 09:55:00,
2013-03-15 06:00:00,32.4,24.4,30.17,South,185,0.0,5.0,72,0.00,,,0.00,Wunderground v.1.15,2013-03-15 10:00:00,
2013-03-15 06:05:00,32.3,24.6,30.16,South,185,0.0,5.0,73,0.00,,,0.00,Wunderground v.1.15,2013-03-15 10:05:00,
2013-03-15 06:10:00,32.2,24.2,30.17,South,185,0.0,5.0,72,0.00,,,0.00,Wunderground v.1.15,2013-03-15 10:10:00,
2013-03-15 06:20:00,32.2,24.2,30.17,South,185,0.0,5.0,72,0.00,,,0.00,Wunderground v.1.15,2013-03-15 10:20:00,
2013-03-15 06:25:00,32.1,24.1,30.17,South,185,0.0,5.0,72,0.00,,,0.00,Wunderground v.1.15,2013-03-15 10:25:00,
2013-03-15 06:30:00,32.1,24.1,30.17,South,185,0.0,5.0,72,0.00,,,0.00,Wunderground v.1.15,2013-03-15 10:30:00,
2013-03-15 06:35:00,32.1,24.1,30.16,South,184,0.0,5.0,72,0.00,,,0.00,Wunderground v.1.15,2013-03-15 10:35:00,
2013-03-15 06:40:00,32.2,23.8,30.16,South,185,0.0,5.0,71,0.00,,,0.00,Wunderground v.1.15,2013-03-15 10:40:00,
2013-03-15 06:50:00,32.1,23.8,30.16,South,184,0.0,5.0,71,0.00,,,0.00,Wunderground v.1.15,2013-03-15 10:50:00,
2013-03-15 06:55:00,32.1,23.8,30.17,South,185,0.0,5.0,71,0.00,,,0.00,Wunderground v.1.15,2013-03-15 10:55:00,
2013-03-15 07:00:00,32.1,23.8,30.17,South,185,0.0,5.0,71,0.00,,,0.00,Wunderground v.1.15,2013-03-15 11:00:00,
2013-03-15 07:05:00,32.1,23.8,30.17,South,185,0.0,5.0,71,0.00,,,0.00,Wunderground v.1.15,2013-03-15 11:05:00,
2013-03-15 07:10:00,32.1,23.4,30.17,South,185,0.0,5.0,70,0.00,,,0.00,Wunderground v.1.15,2013-03-15 11:10:00,
2013-03-15 07:20:00,32.0,24.0,30.16,South,184,0.0,5.0,72,0.00,,,0.00,Wunderground v.1.15,2013-03-15 11:20:00,
2013-03-15 07:25:00,32.0,24.3,30.16,South,184,0.0,5.0,73,0.00,,,0.00,Wunderground v.1.15,2013-03-15 11:25:00,
2013-03-15 07:30:00,31.9,24.2,30.16,South,184,0.0,5.0,73,0.00,,,0.00,Wunderground v.1.15,2013-03-15 11:30:00,
2013-03-15 07:35:00,31.9,24.2,30.16,South,185,0.0,5.0,73,0.00,,,0.00,Wunderground v.1.15,2013-03-15 11:35:00,
2013-03-15 07:40:00,31.8,23.8,30.17,South,185,0.0,5.0,72,0.00,,,0.00,Wunderground v.1.15,2013-03-15 11:40:00,
2013-03-15 07:50:00,31.7,24.4,30.16,South,185,0.0,5.0,74,0.00,,,0.00,Wunderground v.1.15,2013-03-15 11:50:00,
2013-03-15 07:55:00,31.7,24.4,30.16,South,185,0.0,5.0,74,0.00,,,0.00,Wunderground v.1.15,2013-03-15 11:55:00,
2013-03-15 08:00:00,31.6,24.3,30.17,South,184,0.0,5.0,74,0.00,,,0.00,Wunderground v.1.15,2013-03-15 12:00:00,
2013-03-15 08:05:00,31.6,24.6,30.17,South,184,0.0,5.0,75,0.00,,,0.00,Wunderground v.1.15,2013-03-15 12:05:00,
2013-03-15 08:10:00,31.5,24.5,30.17,South,184,0.0,5.0,75,0.00,,,0.00,Wunderground v.1.15,2013-03-15 12:10:00,
2013-03-15 08:15:00,31.5,24.2,30.17,South,185,0.0,5.0,74,0.00,,,0.00,Wunderground v.1.15,2013-03-15 12:15:00,
2013-03-15 08:25:00,31.6,24.3,30.17,South,185,0.0,5.0,74,0.00,,,0.00,Wunderground v.1.15,2013-03-15 12:25:00,
2013-03-15 08:30:00,31.7,24.0,30.17,South,185,0.0,5.0,73,0.00,,,0.00,Wunderground v.1.15,2013-03-15 12:30:00,
2013-03-15 08:35:00,31.9,23.9,30.17,South,185,0.0,5.0,72,0.00,,,0.00,Wunderground v.1.15,2013-03-15 12:35:00,
2013-03-15 08:40:00,32.1,24.1,30.17,South,184,0.0,5.0,72,0.00,,,0.00,Wunderground v.1.15,2013-03-15 12:40:00,
2013-03-15 08:45:00,34.2,24.7,30.17,South,184,0.0,5.0,68,0.00,,,0.00,Wunderground v.1.15,2013-03-15 12:45:00,
2013-03-15 08:55:00,37.5,25.3,30.17,South,185,0.0,5.0,61,0.00,,,0.00,Wunderground v.1.15,2013-03-15 12:55:00,
2013-03-15 09:00:00,38.5,26.2,30.17,South,184,0.0,5.0,61,0.00,,,0.00,Wunderground v.1.15,2013-03-15 13:00:00,
2013-03-15 09:05:00,39.1,26.0,30.17,South,184,0.0,5.0,59,0.00,,,0.00,Wunderground v.1.15,2013-03-15 13:05:00,
2013-03-15 09:15:00,39.4,25.8,30.17,South,185,0.0,5.0,58,0.00,,,0.00,Wunderground v.1.15,2013-03-15 13:15:00,
2013-03-15 09:25:00,41.1,25.7,30.17,South,185,0.0,5.0,54,0.00,,,0.00,Wunderground v.1.15,2013-03-15 13:25:00,
2013-03-15 09:30:00,41.4,26.0,30.17,South,185,0.0,5.0,54,0.00,,,0.00,Wunderground v.1.15,2013-03-15 13:30:00,
2013-03-15 09:35:00,41.5,25.6,30.18,South,184,0.0,5.0,53,0.00,,,0.00,Wunderground v.1.15,2013-03-15 13:35:00,
2013-03-15 09:40:00,41.6,25.3,30.18,South,186,0.0,5.0,52,0.00,,,0.00,Wunderground v.1.15,2013-03-15 13:40:00,
2013-03-15 09:45:00,42.2,25.3,30.18,South,186,0.0,5.0,51,0.00,,,0.00,Wunderground v.1.15,2013-03-15 13:45:00,
2013-03-15 09:55:00,42.7,24.8,30.18,South,186,0.0,5.0,49,0.00,,,0.00,Wunderground v.1.15,2013-03-15 13:55:00,
2013-03-15 10:00:00,42.9,24.5,30.17,South,186,0.0,5.0,48,0.00,,,0.00,Wunderground v.1.15,2013-03-15 14:00:00,
2013-03-15 10:05:00,43.1,24.7,30.17,South,186,0.0,5.0,48,0.00,,,0.00,Wunderground v.1.15,2013-03-15 14:05:00,
2013-03-15 10:10:00,44.8,24.2,30.18,South,186,0.0,5.0,44,0.00,,,0.00,Wunderground v.1.15,2013-03-15 14:10:00,
2013-03-15 10:15:00,45.6,24.4,30.18,North,360,1.0,5.0,43,0.00,,,0.00,Wunderground v.1.15,2013-03-15 14:15:00,
2013-03-15 10:20:00,46.1,25.4,30.18,North,360,1.0,1.0,44,0.00,,,0.00,Wunderground v.1.15,2013-03-15 14:20:00,
2013-03-15 10:30:00,47.0,26.2,30.17,North,5,0.0,5.0,44,0.00,,,0.00,Wunderground v.1.15,2013-03-15 14:30:00,
2013-03-15 10:35:00,47.4,26.0,30.17,East,101,0.0,5.0,43,0.00,,,0.00,Wunderground v.1.15,2013-03-15 14:35:00,
2013-03-15 10:40:00,47.6,25.6,30.17,NE,47,0.0,5.0,42,0.00,,,0.00,Wunderground v.1.15,2013-03-15 14:40:00,
2013-03-15 10:45:00,48.0,24.8,30.16,NE,45,0.0,5.0,40,0.00,,,0.00,Wunderground v.1.15,2013-03-15 14:45:00,
2013-03-15 10:50:00,48.1,25.5,30.16,NE,34,0.0,5.0,41,0.00,,,0.00,Wunderground v.1.15,2013-03-15 14:50:00,
2013-03-15 11:00:00,48.4,25.2,30.15,NE,34,0.0,5.0,40,0.00,,,0.00,Wunderground v.1.15,2013-03-15 15:00:00,
2013-03-15 11:05:00,49.5,26.7,30.15,ESE,117,0.0,5.0,41,0.00,,,0.00,Wunderground v.1.15,2013-03-15 15:05:00,
2013-03-15 11:10:00,49.9,25.9,30.14,ESE,122,0.0,5.0,39,0.00,,,0.00,Wunderground v.1.15,2013-03-15 15:10:00,
2013-03-15 11:15:00,50.6,26.5,30.14,SSW,194,0.0,5.0,39,0.00,,,0.00,Wunderground v.1.15,2013-03-15 15:15:00,
2013-03-15 11:20:00,51.1,27.0,30.14,NW,317,0.0,5.0,39,0.00,,,0.00,Wunderground v.1.15,2013-03-15 15:20:00,
2013-03-15 11:30:00,50.9,26.2,30.14,SE,137,0.0,5.0,38,0.00,,,0.00,Wunderground v.1.15,2013-03-15 15:30:00,
2013-03-15 11:35:00,51.1,26.3,30.14,NNE,17,0.0,5.0,38,0.00,,,0.00,Wunderground v.1.15,2013-03-15 15:35:00,
2013-03-15 11:40:00,51.5,26.1,30.13,North,355,0.0,5.0,37,0.00,,,0.00,Wunderground v.1.15,2013-03-15 15:40:00,
2013-03-15 11:45:00,51.9,27.1,30.13,South,184,0.0,5.0,38,0.00,,,0.00,Wunderground v.1.15,2013-03-15 15:45:00,
2013-03-15 11:50:00,52.3,26.8,30.13,South,189,0.0,5.0,37,0.00,,,0.00,Wunderground v.1.15,2013-03-15 15:50:00,
2013-03-15 12:00:00,52.7,26.5,30.13,SSW,205,0.0,5.0,36,0.00,,,0.00,Wunderground v.1.15,2013-03-15 16:00:00,
2013-03-15 12:05:00,53.0,27.4,30.12,South,175,0.0,5.0,37,0.00,,,0.00,Wunderground v.1.15,2013-03-15 16:05:00,
2013-03-15 12:10:00,53.5,27.2,30.12,NNE,21,0.0,5.0,36,0.00,,,0.00,Wunderground v.1.15,2013-03-15 16:10:00,
2013-03-15 12:15:00,54.0,27.6,30.12,NNE,18,0.0,5.0,36,0.00,,,0.00,Wunderground v.1.15,2013-03-15 16:15:00,
2013-03-15 12:20:00,54.6,27.5,30.12,South,180,0.0,5.0,35,0.00,,,0.00,Wunderground v.1.15,2013-03-15 16:20:00,
2013-03-15 12:25:00,54.7,27.6,30.11,SE,130,0.0,5.0,35,0.00,,,0.00,Wunderground v.1.15,2013-03-15 16:25:00,
2013-03-15 12:35:00,55.6,29.0,30.11,West,261,0.0,5.0,36,0.00,,,0.00,Wunderground v.1.15,2013-03-15 16:35:00,
2013-03-15 12:40:00,55.7,28.4,30.10,South,186,0.0,5.0,35,0.00,,,0.00,Wunderground v.1.15,2013-03-15 16:40:00,
2013-03-15 12:45:00,55.8,29.2,30.09,South,184,0.0,5.0,36,0.00,,,0.00,Wunderground v.1.15,2013-03-15 16:45:00,
2013-03-15 12:50:00,55.9,28.6,30.09,East,96,0.0,5.0,35,0.00,,,0.00,Wunderground v.1.15,2013-03-15 16:50:00,
2013-03-15 12:55:00,56.1,28.8,30.08,ESE,109,0.0,5.0,35,0.00,,,0.00,Wunderground v.1.15,2013-03-15 16:55:00,
2013-03-15 13:05:00,57.0,28.9,30.08,SSE,148,0.0,5.0,34,0.00,,,0.00,Wunderground v.1.15,2013-03-15 17:05:00,
2013-03-15 13:10:00,57.5,30.0,30.08,SSE,150,0.0,5.0,35,0.00,,,0.00,Wunderground v.1.15,2013-03-15 17:10:00,
2013-03-15 13:15:00,57.7,29.5,30.07,South,173,0.0,5.0,34,0.00,,,0.00,Wunderground v.1.15,2013-03-15 17:15:00,
2013-03-15 13:20:00,57.7,29.5,30.07,ESE,117,0.0,5.0,34,0.00,,,0.00,Wunderground v.1.15,2013-03-15 17:20:00,
2013-03-15 13:25:00,59.0,29.9,30.07,SSW,202,0.0,5.0,33,0.00,,,0.00,Wunderground v.1.15,2013-03-15 17:25:00,
2013-03-15 13:35:00,59.0,30.6,30.06,South,182,0.0,5.0,34,0.00,,,0.00,Wunderground v.1.15,2013-03-15 17:35:00,
2013-03-15 13:40:00,59.0,30.6,30.06,North,360,0.0,5.0,34,0.00,,,0.00,Wunderground v.1.15,2013-03-15 17:40:00,
2013-03-15 13:45:00,58.7,31.1,30.06,NNW,340,1.0,5.0,35,0.00,,,0.00,Wunderground v.1.15,2013-03-15 17:45:00,
2013-03-15 13:50:00,59.3,31.6,30.06,West,275,0.0,5.0,35,0.00,,,0.00,Wunderground v.1.15,2013-03-15 17:50:00,
2013-03-15 13:55:00,59.2,30.8,30.05,North,360,1.0,5.0,34,0.00,,,0.00,Wunderground v.1.15,2013-03-15 17:55:00,
2013-03-15 14:00:00,59.6,31.9,30.05,SSW,194,1.0,5.0,35,0.00,,,0.00,Wunderground v.1.15,2013-03-15 18:00:00,
2013-03-15 14:05:00,60.6,32.1,30.05,SSW,199,0.0,5.0,34,0.00,,,0.00,Wunderground v.1.15,2013-03-15 18:05:00,
2013-03-15 14:10:00,60.0,31.5,30.05,NW,325,0.0,5.0,34,0.00,,,0.00,Wunderground v.1.15,2013-03-15 18:10:00,
2013-03-15 14:15:00,59.9,31.4,30.04,West,272,1.0,5.0,34,0.00,,,0.00,Wunderground v.1.15,2013-03-15 18:15:00,
2013-03-15 14:20:00,60.4,31.9,30.04,NE,55,0.0,5.0,34,0.00,,,0.00,Wunderground v.1.15,2013-03-15 18:20:00,
2013-03-15 14:25:00,60.4,31.9,30.03,North,355,0.0,5.0,34,0.00,,,0.00,Wunderground v.1.15,2013-03-15 18:25:00,
2013-03-15 14:30:00,60.8,32.2,30.03,NNE,12,1.0,5.0,34,0.00,,,0.00,Wunderground v.1.15,2013-03-15 18:30:00,
2013-03-15 14:40:00,60.6,32.8,30.02,SSE,157,0.0,5.0,35,0.00,,,0.00,Wunderground v.1.15,2013-03-15 18:40:00,
2013-03-15 14:45:00,60.9,32.3,30.02,SSW,194,0.0,5.0,34,0.00,,,0.00,Wunderground v.1.15,2013-03-15 18:45:00,
2013-03-15 14:50:00,61.1,32.5,30.01,South,171,0.0,5.0,34,0.00,,,0.00,Wunderground v.1.15,2013-03-15 18:50:00,
2013-03-15 14:55:00,62.0,33.3,30.01,South,169,0.0,5.0,34,0.00,,,0.00,Wunderground v.1.15,2013-03-15 18:55:00,
2013-03-15 15:00:00,61.8,31.6,30.00,West,263,0.0,5.0,32,0.00,,,0.00,Wunderground v.1.15,2013-03-15 19:00:00,
2013-03-15 15:10:00,61.2,31.8,30.00,SSE,163,1.0,5.0,33,0.00,,,0.00,Wunderground v.1.15,2013-03-15 19:10:00,
2013-03-15 15:15:00,61.7,32.3,30.00,ESE,107,1.0,5.0,33,0.00,,,0.00,Wunderground v.1.15,2013-03-15 19:15:00,
2013-03-15 15:20:00,61.3,31.9,30.00,South,187,0.0,5.0,33,0.00,,,0.00,Wunderground v.1.15,2013-03-15 19:20:00,
2013-03-15 15:25:00,61.3,32.7,29.99,South,188,0.0,5.0,34,0.00,,,0.00,Wunderground v.1.15,2013-03-15 19:25:00,
2013-03-15 15:30:00,61.6,32.2,29.99,South,178,0.0,5.0,33,0.00,,,0.00,Wunderground v.1.15,2013-03-15 19:30:00,
2013-03-15 15:40:00,61.4,32.8,29.98,South,175,0.0,5.0,34,0.00,,,0.00,Wunderground v.1.15,2013-03-15 19:40:00,
2013-03-15 15:45:00,61.8,33.1,29.98,South,178,0.0,5.0,34,0.00,,,0.00,Wunderground v.1.15,2013-03-15 19:45:00,
2013-03-15 15:50:00,61.8,32.4,29.98,South,171,0.0,5.0,33,0.00,,,0.00,Wunderground v.1.15,2013-03-15 19:50:00,
2013-03-15 16:00:00,62.3,32.8,29.98,South,183,0.0,5.0,33,0.00,,,0.00,Wunderground v.1.15,2013-03-15 20:00:00,
2013-03-15 16:05:00,61.9,32.5,29.97,SSE,167,0.0,5.0,33,0.00,,,0.00,Wunderground v.1.15,2013-03-15 20:05:00,
2013-03-15 16:15:00,62.3,33.6,29.97,South,171,0.0,5.0,34,0.00,,,0.00,Wunderground v.1.15,2013-03-15 20:15:00,
2013-03-15 16:20:00,62.4,34.4,29.97,WSW,252,1.0,1.0,35,0.00,,,0.00,Wunderground v.1.15,2013-03-15 20:20:00,
2013-03-15 16:25:00,62.8,34.7,29.97,South,169,0.0,5.0,35,0.00,,,0.00,Wunderground v.1.15,2013-03-15 20:25:00,
2013-03-15 16:30:00,63.0,34.2,29.96,WNW,287,0.0,5.0,34,0.00,,,0.00,Wunderground v.1.15,2013-03-15 20:30:00,
2013-03-15 16:35:00,62.6,33.8,29.96,ESE,119,0.0,5.0,34,0.00,,,0.00,Wunderground v.1.15,2013-03-15 20:35:00,
2013-03-15 16:45:00,62.5,34.5,29.95,SE,145,0.0,5.0,35,0.00,,,0.00,Wunderground v.1.15,2013-03-15 20:45:00,
2013-03-15 16:50:00,62.3,34.3,29.95,SSE,160,0.0,5.0,35,0.00,,,0.00,Wunderground v.1.15,2013-03-15 20:50:00,
2013-03-15 16:55:00,62.3,35.0,29.95,South,178,1.0,5.0,36,0.00,,,0.00,Wunderground v.1.15,2013-03-15 20:55:00,
2013-03-15 17:00:00,62.4,35.1,29.95,SSW,194,1.0,1.0,36,0.00,,,0.00,Wunderground v.1.15,2013-03-15 21:00:00,
2013-03-15 17:05:00,62.5,35.2,29.95,SSW,194,0.0,5.0,36,0.00,,,0.00,Wunderground v.1.15,2013-03-15 21:05:00,
2013-03-15 17:10:00,62.4,35.8,29.94,SSW,195,0.0,5.0,37,0.00,,,0.00,Wunderground v.1.15,2013-03-15 21:10:00,
2013-03-15 17:15:00,62.3,35.0,29.94,SSW,195,0.0,5.0,36,0.00,,,0.00,Wunderground v.1.15,2013-03-15 21:15:00,
2013-03-15 17:20:00,62.4,35.8,29.94,SSW,196,0.0,5.0,37,0.00,,,0.00,Wunderground v.1.15,2013-03-15 21:20:00,
2013-03-15 17:25:00,62.5,35.9,29.94,SSW,196,0.0,5.0,37,0.00,,,0.00,Wunderground v.1.15,2013-03-15 21:25:00,
2013-03-15 17:30:00,62.6,36.6,29.94,SSE,162,0.0,5.0,38,0.00,,,0.00,Wunderground v.1.15,2013-03-15 21:30:00,
2013-03-15 17:35:00,62.6,35.9,29.94,South,181,0.0,5.0,37,0.00,,,0.00,Wunderground v.1.15,2013-03-15 21:35:00,
2013-03-15 17:45:00,62.5,35.9,29.93,South,176,0.0,5.0,37,0.00,,,0.00,Wunderground v.1.15,2013-03-15 21:45:00,
2013-03-15 17:50:00,62.5,35.9,29.93,SW,215,0.0,5.0,37,0.00,,,0.00,Wunderground v.1.15,2013-03-15 21:50:00,
2013-03-15 17:55:00,62.5,35.9,29.93,WSW,242,0.0,5.0,37,0.00,,,0.00,Wunderground v.1.15,2013-03-15 21:55:00,
2013-03-15 18:00:00,62.3,35.7,29.93,SSW,195,0.0,5.0,37,0.00,,,0.00,Wunderground v.1.15,2013-03-15 22:00:00,
2013-03-15 18:05:00,62.2,36.3,29.92,SSW,205,0.0,5.0,38,0.00,,,0.00,Wunderground v.1.15,2013-03-15 22:05:00,
2013-03-15 18:10:00,62.1,36.2,29.93,SSW,205,0.0,5.0,38,0.00,,,0.00,Wunderground v.1.15,2013-03-15 22:10:00,
2013-03-15 18:15:00,61.9,36.0,29.92,SSW,200,0.0,5.0,38,0.00,,,0.00,Wunderground v.1.15,2013-03-15 22:15:00,
2013-03-15 18:20:00,61.8,35.9,29.93,SSE,153,0.0,5.0,38,0.00,,,0.00,Wunderground v.1.15,2013-03-15 22:20:00,
2013-03-15 18:25:00,61.6,35.7,29.93,South,178,0.0,5.0,38,0.00,,,0.00,Wunderground v.1.15,2013-03-15 22:25:00,
2013-03-15 18:30:00,61.5,35.6,29.93,South,178,0.0,5.0,38,0.00,,,0.00,Wunderground v.1.15,2013-03-15 22:30:00,
2013-03-15 18:35:00,61.4,35.5,29.93,SSW,196,0.0,5.0,38,0.00,,,0.00,Wunderground v.1.15,2013-03-15 22:35:00,
2013-03-15 18:40:00,61.4,36.2,29.93,NNE,23,0.0,5.0,39,0.00,,,0.00,Wunderground v.1.15,2013-03-15 22:40:00,
2013-03-15 18:50:00,61.2,36.0,29.93,SE,138,0.0,5.0,39,0.00,,,0.00,Wunderground v.1.15,2013-03-15 22:50:00,
2013-03-15 18:55:00,61.1,35.9,29.93,SW,219,0.0,5.0,39,0.00,,,0.00,Wunderground v.1.15,2013-03-15 22:55:00,
2013-03-15 19:00:00,60.9,35.8,29.93,South,184,0.0,5.0,39,0.00,,,0.00,Wunderground v.1.15,2013-03-15 23:00:00,
2013-03-15 19:05:00,60.8,35.7,29.93,South,184,0.0,5.0,39,0.00,,,0.00,Wunderground v.1.15,2013-03-15 23:05:00,
2013-03-15 19:10:00,60.6,36.1,29.93,South,183,0.0,5.0,40,0.00,,,0.00,Wunderground v.1.15,2013-03-15 23:10:00,
2013-03-15 19:15:00,60.4,35.9,29.93,South,184,0.0,5.0,40,0.00,,,0.00,Wunderground v.1.15,2013-03-15 23:15:00,
2013-03-15 19:20:00,60.3,35.9,29.93,South,183,0.0,5.0,40,0.00,,,0.00,Wunderground v.1.15,2013-03-15 23:20:00,
2013-03-15 19:25:00,60.0,36.2,29.93,South,183,0.0,5.0,41,0.00,,,0.00,Wunderground v.1.15,2013-03-15 23:25:00,
2013-03-15 19:30:00,59.8,36.0,29.93,South,184,0.0,5.0,41,0.00,,,0.00,Wunderground v.1.15,2013-03-15 23:30:00,
2013-03-15 19:35:00,59.6,35.9,29.93,South,184,0.0,5.0,41,0.00,,,0.00,Wunderground v.1.15,2013-03-15 23:35:00,
2013-03-15 19:40:00,59.3,36.2,29.93,South,184,0.0,5.0,42,0.00,,,0.00,Wunderground v.1.15,2013-03-15 23:40:00,
2013-03-15 19:50:00,59.0,35.9,29.93,South,184,0.0,5.0,42,0.00,,,0.00,Wunderground v.1.15,2013-03-15 23:50:00,
2013-03-15 19:55:00,58.7,36.2,29.93,South,184,0.0,5.0,43,0.00,,,0.00,Wunderground v.1.15,2013-03-15 23:55:00,
2013-03-15 20:00:00,58.5,36.1,29.93,South,184,0.0,5.0,43,0.00,,,0.00,Wunderground v.1.15,2013-03-16 00:00:00,
2013-03-15 20:10:00,58.0,36.2,29.92,South,184,0.0,5.0,44,0.00,,,0.00,Wunderground v.1.15,2013-03-16 00:10:00,
2013-03-15 20:15:00,57.7,35.9,29.92,South,184,0.0,5.0,44,0.00,,,0.00,Wunderground v.1.15,2013-03-16 00:15:00,
2013-03-15 20:25:00,57.3,36.1,29.92,South,183,0.0,5.0,45,0.00,,,0.00,Wunderground v.1.15,2013-03-16 00:25:00,
2013-03-15 20:30:00,57.1,36.5,29.92,South,184,0.0,5.0,46,0.00,,,0.00,Wunderground v.1.15,2013-03-16 00:30:00,
2013-03-15 20:35:00,56.9,36.3,29.92,South,183,0.0,5.0,46,0.00,,,0.00,Wunderground v.1.15,2013-03-16 00:35:00,
2013-03-15 20:40:00,56.7,36.1,29.92,South,183,0.0,5.0,46,0.00,,,0.00,Wunderground v.1.15,2013-03-16 00:40:00,
2013-03-15 20:45:00,56.6,36.0,29.92,South,184,0.0,5.0,46,0.00,,,0.00,Wunderground v.1.15,2013-03-16 00:45:00,
2013-03-15 20:55:00,56.2,36.2,29.92,South,184,0.0,5.0,47,0.00,,,0.00,Wunderground v.1.15,2013-03-16 00:55:00,
2013-03-15 21:00:00,56.1,36.1,29.92,South,184,0.0,5.0,47,0.00,,,0.00,Wunderground v.1.15,2013-03-16 01:00:00,
2013-03-15 21:10:00,55.9,36.5,29.92,South,184,0.0,5.0,48,0.00,,,0.00,Wunderground v.1.15,2013-03-16 01:10:00,
2013-03-15 21:15:00,55.8,36.4,29.92,South,184,0.0,5.0,48,0.00,,,0.00,Wunderground v.1.15,2013-03-16 01:15:00,
2013-03-15 21:20:00,55.7,36.3,29.92,South,184,0.0,5.0,48,0.00,,,0.00,Wunderground v.1.15,2013-03-16 01:20:00,
2013-03-15 21:30:00,55.7,36.3,29.92,South,169,0.0,5.0,48,0.00,,,0.00,Wunderground v.1.15,2013-03-16 01:30:00,
2013-03-15 21:35:00,55.7,36.3,29.92,South,169,0.0,5.0,48,0.00,,,0.00,Wunderground v.1.15,2013-03-16 01:35:00,
2013-03-15 21:40:00,55.7,36.3,29.92,SSE,167,0.0,5.0,48,0.00,,,0.00,Wunderground v.1.15,2013-03-16 01:40:00,
2013-03-15 21:45:00,55.6,36.2,29.92,SSE,167,0.0,5.0,48,0.00,,,0.00,Wunderground v.1.15,2013-03-16 01:45:00,
2013-03-15 21:50:00,55.6,36.7,29.92,SSE,167,0.0,5.0,49,0.00,,,0.00,Wunderground v.1.15,2013-03-16 01:50:00,
2013-03-15 21:55:00,55.5,36.6,29.92,SSE,167,0.0,5.0,49,0.00,,,0.00,Wunderground v.1.15,2013-03-16 01:55:00,
2013-03-15 22:00:00,55.5,36.6,29.92,SSE,167,0.0,5.0,49,0.00,,,0.00,Wunderground v.1.15,2013-03-16 02:00:00,
2013-03-15 22:05:00,55.4,36.5,29.92,SSE,167,0.0,5.0,49,0.00,,,0.00,Wunderground v.1.15,2013-03-16 02:05:00,
2013-03-15 22:10:00,55.3,36.5,29.92,SSE,167,0.0,5.0,49,0.00,,,0.00,Wunderground v.1.15,2013-03-16 02:10:00,
2013-03-15 22:15:00,55.2,36.4,29.92,SSE,167,0.0,5.0,49,0.00,,,0.00,Wunderground v.1.15,2013-03-16 02:15:00,
2013-03-15 22:20:00,55.2,36.9,29.92,SSE,167,0.0,5.0,50,0.00,,,0.00,Wunderground v.1.15,2013-03-16 02:20:00,
2013-03-15 22:30:00,55.0,36.7,29.92,SSE,167,0.0,5.0,50,0.00,,,0.00,Wunderground v.1.15,2013-03-16 02:30:00,
2013-03-15 22:35:00,55.0,36.7,29.92,SSE,167,0.0,5.0,50,0.00,,,0.00,Wunderground v.1.15,2013-03-16 02:35:00,
2013-03-15 22:40:00,54.9,36.6,29.92,SE,142,0.0,5.0,50,0.00,,,0.00,Wunderground v.1.15,2013-03-16 02:40:00,
2013-03-15 22:45:00,54.8,36.5,29.92,SE,142,0.0,5.0,50,0.00,,,0.00,Wunderground v.1.15,2013-03-16 02:45:00,
2013-03-15 22:50:00,54.8,37.0,29.92,SSE,150,0.0,0.0,51,0.00,,,0.00,Wunderground v.1.15,2013-03-16 02:50:00,
2013-03-15 23:00:00,54.6,36.8,29.92,SSE,158,0.0,0.0,51,0.00,,,0.00,Wunderground v.1.15,2013-03-16 03:00:00,
2013-03-15 23:05:00,54.6,36.8,29.91,SSE,158,0.0,0.0,51,0.00,,,0.00,Wunderground v.1.15,2013-03-16 03:05:00,
2013-03-15 23:10:00,54.6,36.8,29.91,SSE,158,0.0,0.0,51,0.00,,,0.00,Wunderground v.1.15,2013-03-16 03:10:00,
2013-03-15 23:15:00,54.5,36.7,29.91,SSE,158,0.0,0.0,51,0.00,,,0.00,Wunderground v.1.15,2013-03-16 03:15:00,
2013-03-15 23:20:00,54.4,36.6,29.91,SSE,159,0.0,0.0,51,0.00,,,0.00,Wunderground v.1.15,2013-03-16 03:20:00,
2013-03-15 23:25:00,54.4,37.1,29.91,SSE,159,0.0,0.0,52,0.00,,,0.00,Wunderground v.1.15,2013-03-16 03:25:00,
2013-03-15 23:30:00,54.3,37.0,29.90,SSE,159,0.0,0.0,52,0.00,,,0.00,Wunderground v.1.15,2013-03-16 03:30:00,
2013-03-15 23:40:00,54.1,37.3,29.90,South,172,0.0,0.0,53,0.00,,,0.00,Wunderground v.1.15,2013-03-16 03:40:00,
2013-03-15 23:45:00,54.1,37.3,29.90,South,173,0.0,0.0,53,0.00,,,0.00,Wunderground v.1.15,2013-03-16 03:45:00,
2013-03-15 23:50:00,53.9,37.1,29.90,South,173,0.0,2.0,53,0.00,,,0.00,Wunderground v.1.15,2013-03-16 03:50:00,
2013-03-15 23:55:00,53.8,37.1,29.90,South,173,0.0,2.0,53,0.00,,,0.00,Wunderground v.1.15,2013-03-16 03:55:00,